Погода в Лутре-Эдипсу

Греция     38°51′23″N   23°02′35″E
темп.,
°C
ветер,
м/с
пор.,
м/с
влажн.,
%
обл.,
%
осадки,
мм/ч
давл.,
гПа
погр.,
м
14 апреля, ср
ср1400:00+14ююз11725 0.0 101614
03:00+13зюз22615 0.0 101526
06:00+12зюз23486 0.0 101499
09:00+13з22466 0.0 1015186
12:00+16в2243100 0.0 1014647
15:00+15св1247100 0.0 1013268
18:00+17ссз114167 0.0 1012173
21:00+15з1154100 0.0 101310
15 апреля, чт
чт1500:00+13з22602 0.0 101422
03:00+12зсз336392 0.0 101577
06:00+11зсз22579 0.0 101597
09:00+12сз22500 0.0 1017254
12:00+14ссв114947 0.0 1017579
15:00+15всв335329 0.0 1016655
18:00+16всв2352100 0.0 1015500
21:00+13всв226955 0.0 1016107
16 апреля, пт
пт1600:00+11ссв117424 0.0 101795
03:00+11ссз117941 0.0 101799
06:00+10ссз2283100 0.0 1017156
09:00+12ссв237298 0.0 1019500
12:00+13ссз2270100 0.0 1019493
15:00+12св2280100 0.4 1019451
18:00+12ссв2384100 0.4 1017475
21:00+12ссв2283100 0.7 1018325
17 апреля, сб
сб1700:00+12всв2385100 0.3 1016305
03:00+11ссв2288100 0.7 1015229
06:00+12ссв2389100 0.6 1014462
09:00+12св3484100 0.8 1014531
12:00+14св237880 0.2 1012625
15:00+15всв0175100 0.3 1010352
18:00+15с337983 0.0 1009571
21:00+13с3393100 0.1 1010232
18 апреля, вс
вс1800:00+13с2294100 0.1 1011206
03:00+13с1193100 0.1 1011176
06:00+13ссз009375 0.0 1011115
09:00+14с0087100 0.0 1012247
12:00+16св2277100 0.0 1012570
15:00+16ссв227532 0.0 1011345
18:00+18ссв33700 0.0 1010256
21:00+14ссз23910 0.0 101189